Theta_e
308 308 307 307 307 306 306 306 306 307 309 305 301 303 299 297 296 305 309 312 310 303 296 298 296 295 297 299 298 298 296 295 296 296 296 295 297 295 294 294 292 292 293 293 291 292 288 291 289 288 289 291 294 296 296 295 295 292 289 291 290 291 283 282 282 282 283 284 284 286 286 288 286 285 283 283 282 282 280 279 276 274 273 275 274 275 277
308 307 307 307 307 306 306 306 306 306 304 302 303 301 298 298 298 301 308 312 310 300 290 290 293 293 297 297 297 298 296 295 294 295 296 295 295 294 292 294 296 293 295 292 291 294 286 290 290 287 287 288 293 292 295 296 292 291 290 289 290 283 281 283 278 278 279 280 281 282 284 285 283 282 283 282 281 281 279 276 274 277 277 279 274 274 280
307 307 306 306 307 306 306 306 306 305 304 302 301 298 299 298 299 299 303 308 305 296 297 294 292 294 294 294 293 295 295 297 297 296 295 296 295 295 293 296 294 293 294 293 294 293 292 286 287 288 285 288 290 290 291 293 291 290 290 293 291 285 281 282 278 277 275 274 274 272 278 284 282 284 282 284 283 281 279 274 275 275 281 281 278 278 282
306 306 306 305 305 305 305 304 304 303 303 302 299 297 297 293 286 295 297 302 302 300 300 297 294 292 292 292 294 296 293 296 297 298 297 299 296 296 295 295 296 292 291 288 290 290 291 290 283 286 286 286 287 289 288 289 288 290 293 290 288 281 283 284 285 282 280 281 277 281 283 281 280 278 280 281 280 279 276 274 272 274 277 274 278 278 276
306 305 305 305 304 303 303 303 302 301 301 301 297 295 296 296 288 290 286 297 298 297 299 295 296 291 295 289 293 292 294 295 295 299 293 297 297 295 295 293 292 290 290 288 289 291 290 290 287 286 284 285 287 288 286 287 289 293 290 288 282 280 281 283 282 282 283 282 281 283 284 281 279 279 281 281 277 275 275 276 274 279 273 272 279 278 275
305 305 304 304 303 303 303 302 301 300 300 300 298 292 294 288 291 294 296 291 288 291 293 297 295 295 296 291 295 291 292 293 291 295 297 295 297 293 292 293 294 293 292 291 287 288 289 289 287 287 286 287 289 288 288 287 290 289 287 285 284 280 278 280 282 281 281 280 281 281 280 280 279 280 280 280 281 275 272 270 278 277 274 274 278 277 275
305 304 303 303 302 302 302 301 300 300 299 300 295 292 292 292 289 291 294 290 292 294 294 296 295 294 295 292 294 291 292 291 294 292 290 293 292 296 288 291 293 293 294 292 289 289 285 285 290 288 286 287 287 285 286 287 286 285 286 285 280 281 275 278 279 277 279 278 278 279 276 277 277 277 278 279 278 277 276 276 278 278 276 278 278 278 277
304 304 303 303 302 302 302 301 300 299 299 297 291 289 290 288 289 286 290 290 287 289 293 293 294 291 294 289 291 292 291 290 293 292 292 288 291 296 292 293 293 293 291 292 289 290 291 290 287 287 287 283 286 285 284 282 284 284 285 286 285 284 276 282 278 277 273 276 278 278 278 277 275 277 278 278 277 277 278 279 279 277 275 277 278 277 277
305 304 304 303 302 302 302 302 301 299 299 290 290 289 290 290 289 291 287 287 287 287 289 292 292 290 292 290 291 292 292 291 293 291 294 294 290 291 292 294 291 290 290 291 291 293 290 288 290 288 289 287 288 287 283 286 283 283 282 283 282 281 274 278 277 273 268 272 274 275 275 273 272 273 275 275 275 274 277 275 277 276 275 277 275 272 275
305 304 304 303 303 302 302 302 302 300 299 290 289 285 291 289 290 291 289 285 290 287 287 290 291 287 292 292 292 291 292 294 293 289 291 289 291 293 295 295 293 289 289 288 291 291 288 289 286 287 286 287 284 284 284 287 285 280 282 282 281 280 276 273 269 269 265 269 272 272 271 270 270 273 275 276 276 278 278 278 278 278 279 273 272 274 279
305 305 304 304 303 303 303 302 302 301 295 289 287 286 288 287 287 286 287 283 284 286 288 288 289 291 293 294 292 294 292 292 292 289 286 288 289 288 292 292 290 287 288 290 288 287 287 287 285 286 286 286 285 284 284 283 284 284 283 277 276 279 279 274 274 271 265 267 269 270 268 264 269 273 278 277 275 276 274 275 277 278 280 276 277 276 275
305 305 304 304 304 303 303 302 302 302 297 291 290 287 289 290 288 287 284 281 284 285 287 287 290 291 291 292 293 291 291 291 290 291 290 286 286 285 288 288 290 284 286 288 289 288 287 287 287 287 285 283 283 284 284 284 284 285 283 282 277 278 278 275 274 271 268 267 268 267 265 267 272 276 277 278 278 277 276 277 277 277 274 274 276 276 274
305 305 304 304 304 303 303 303 303 302 299 292 290 286 289 290 286 285 284 283 281 282 283 284 285 288 288 289 289 290 290 287 287 287 287 286 284 284 285 286 287 286 289 287 288 287 283 279 279 280 279 278 279 281 282 283 284 285 285 284 282 278 277 274 274 272 270 268 269 262 265 270 272 275 275 276 275 276 275 274 276 277 276 277 276 277 278
305 305 305 304 304 303 303 303 302 302 300 296 290 288 288 288 284 284 284 283 282 282 281 283 283 284 286 287 288 283 284 283 282 284 284 284 285 285 284 285 286 289 286 287 284 283 279 278 272 276 275 272 271 272 275 280 282 283 283 284 284 282 279 277 273 276 269 268 267 269 266 271 274 274 273 275 275 273 272 268 272 276 272 275 274 276 276
305 305 305 305 303 303 303 303 303 302 302 299 293 290 289 289 288 285 285 285 278 282 282 279 281 282 284 284 285 284 283 283 285 282 281 282 281 282 283 283 285 288 287 285 279 280 279 272 270 272 265 266 266 268 271 270 274 279 282 281 280 281 278 275 273 267 271 265 265 263 261 263 269 272 273 275 276 274 274 272 268 272 267 271 276 274 270
304 303 304 304 303 303 303 303 302 302 301 301 294 291 290 290 289 288 285 283 282 277 280 283 281 281 282 282 284 285 282 283 281 280 279 278 280 282 283 282 282 283 282 281 280 277 274 276 267 267 266 264 266 264 265 269 268 273 277 279 279 279 279 276 275 270 270 266 267 266 262 264 270 267 269 274 273 275 270 268 266 272 269 272 274 272 270
303 303 303 303 303 303 302 302 302 302 301 301 294 292 289 291 288 286 284 283 282 277 282 280 281 280 279 280 282 281 281 280 281 279 276 278 280 277 280 282 282 283 281 280 279 274 270 266 263 261 262 265 265 265 266 264 263 266 276 278 277 278 276 275 272 269 270 268 267 266 266 265 269 268 273 276 274 275 272 261 261 266 270 271 274 274 273
303 302 302 302 302 302 302 302 302 302 302 302 297 292 291 292 290 288 283 282 280 279 280 281 282 281 280 280 279 280 279 277 276 276 277 274 273 275 277 279 280 282 283 280 276 272 269 267 271 266 268 270 270 268 263 266 259 264 269 274 272 275 272 275 271 272 272 273 268 268 268 271 269 271 275 275 275 272 261 264 268 270 273 273 274 274 274
303 302 302 302 302 302 303 302 303 303 302 301 298 294 292 293 291 289 282 281 278 275 280 280 283 281 282 282 279 280 280 281 279 276 273 275 274 273 276 276 282 278 278 276 274 270 274 267 267 260 264 266 270 264 267 264 263 267 271 268 269 269 271 270 272 271 271 271 270 270 272 273 269 272 276 276 272 263 267 274 272 274 274 273 275 275 274
303 303 302 302 302 302 303 302 302 302 302 301 299 292 294 295 293 291 286 279 278 275 278 280 282 280 282 282 279 276 278 278 278 277 275 271 273 279 280 276 279 273 272 278 272 269 267 267 268 262 261 263 264 268 258 258 268 268 267 269 269 270 270 268 271 271 271 270 267 267 264 274 277 276 274 275 268 270 275 272 273 272 273 273 273 275 275
302 302 301 302 302 301 301 302 302 302 302 301 300 293 291 294 292 291 290 285 278 274 275 281 282 284 282 281 281 281 280 280 278 277 278 276 279 281 273 275 278 273 273 273 273 270 266 261 262 263 265 268 266 267 263 262 265 269 270 266 265 270 263 258 264 272 265 269 266 266 274 274 277 278 272 273 277 276 274 275 273 274 273 274 274 275 276
302 302 302 302 302 301 302 302 302 301 301 301 300 294 289 292 293 292 290 288 281 276 274 286 285 282 284 285 284 284 283 282 283 282 278 276 278 278 274 270 274 270 269 267 263 262 264 262 263 262 265 263 264 266 259 261 262 263 263 266 265 272 271 268 266 267 267 266 270 272 275 276 278 280 279 278 280 279 274 276 276 275 275 274 275 276 276
301 301 301 302 302 302 302 302 301 301 301 302 299 294 290 291 291 293 289 285 285 286 285 282 284 284 288 287 286 286 284 284 283 281 282 280 274 275 272 273 273 277 275 275 274 270 269 268 267 265 260 264 269 262 261 263 260 260 266 271 271 271 273 273 270 267 271 272 270 273 273 273 276 278 279 277 276 274 275 276 276 275 277 276 276 277 277
301 301 302 301 301 302 301 301 302 301 302 301 299 294 293 293 293 291 288 288 285 281 283 283 280 277 281 282 287 287 286 285 285 282 283 285 277 270 276 277 278 277 272 276 277 270 266 261 264 264 265 266 265 262 266 263 265 262 264 266 268 271 272 270 268 270 268 264 272 273 275 274 274 278 279 276 275 276 276 275 277 278 277 276 276 278 278
300 300 301 301 301 301 300 301 301 301 301 301 300 298 295 293 294 292 287 282 283 282 277 281 283 286 284 286 287 285 286 287 288 285 283 282 282 279 277 278 280 278 277 277 277 273 266 267 269 265 266 268 273 264 267 268 265 271 264 268 268 271 274 271 272 270 270 269 273 273 275 276 276 277 276 277 278 277 276 277 277 278 278 277 278 277 277
300 301 301 301 301 300 300 301 301 301 302 302 300 295 293 293 295 294 290 289 287 285 279 278 280 286 286 285 283 286 285 288 286 284 283 282 282 283 281 280 280 278 278 279 278 276 267 265 261 260 266 268 274 264 264 273 267 272 271 271 275 273 274 263 270 271 272 274 275 275 274 274 275 275 275 276 277 277 276 276 276 276 276 277 276 276 277
301 300 300 300 300 300 300 301 301 300 300 301 299 297 295 295 297 293 289 288 285 280 282 279 283 283 283 284 285 286 286 287 285 285 284 283 282 281 281 280 280 278 279 275 274 271 264 264 267 270 265 265 271 266 269 269 271 266 265 274 274 272 271 272 270 266 267 269 274 274 267 270 276 277 278 278 278 277 277 277 275 275 275 276 276 276 276
299 300 300 300 300 300 300 300 300 301 301 301 299 296 295 294 295 295 293 290 287 280 280 279 278 281 283 279 284 286 288 287 286 285 284 283 282 282 281 281 279 278 275 276 272 271 269 271 272 269 267 266 271 269 273 274 273 268 270 274 276 273 275 273 270 270 270 275 276 277 277 277 277 278 277 276 276 276 276 276 276 277 277 277 276 276 276
300 300 300 300 300 300 300 300 300 300 300 298 292 290 289 294 296 296 293 292 289 285 282 281 280 276 277 280 284 284 285 287 286 285 284 282 283 282 282 281 280 280 277 276 274 272 270 274 276 272 269 274 270 266 272 267 268 268 273 277 278 278 279 277 276 276 276 277 278 276 275 275 277 278 278 278 277 276 276 277 277 277 277 277 276 276 276
298 299 299 299 299 300 300 300 300 300 300 293 288 286 284 286 293 295 297 294 291 287 283 280 277 279 281 280 279 282 283 285 285 284 283 282 282 282 282 281 281 283 279 278 278 274 276 273 276 276 276 278 274 270 271 270 270 273 278 279 280 280 280 279 278 277 276 279 278 277 276 276 278 278 278 278 277 276 275 275 276 275 276 275 275 276 276
298 298 299 299 298 298 299 299 299 300 299 290 288 282 281 279 286 295 297 295 293 288 283 284 279 283 278 280 280 282 283 284 283 283 283 284 284 283 284 283 280 283 278 278 277 278 279 272 276 275 278 280 279 271 272 273 271 273 277 279 280 280 279 279 280 280 279 279 280 275 273 276 276 276 275 276 276 274 273 273 274 275 276 274 274 275 275
298 298 298 298 298 298 298 298 298 298 295 289 287 284 283 284 288 292 297 296 293 287 283 279 279 279 277 280 277 281 283 284 285 283 282 284 282 284 281 283 280 284 283 280 279 278 279 280 278 277 276 281 280 271 276 274 272 273 279 279 280 280 280 279 279 279 279 280 278 275 275 276 277 276 277 280 279 275 274 276 276 275 274 274 272 269 269
297 297 297 297 297 298 298 298 298 296 291 293 296 294 293 295 296 295 296 295 290 285 286 282 276 279 277 276 276 274 281 281 280 282 280 285 280 282 278 283 281 280 287 282 278 278 281 281 281 278 279 280 274 276 275 274 275 279 280 280 280 279 278 279 279 279 279 279 278 276 275 277 278 279 279 279 278 275 274 274 275 272 269 267 268 268 266
296 296 297 297 297 297 297 297 297 297 296 291 286 287 291 296 294 294 293 288 285 285 284 279 277 276 273 273 267 273 285 280 280 283 278 284 282 283 279 282 283 280 282 280 281 279 277 281 278 279 280 275 279 274 271 275 279 280 281 280 281 280 280 278 276 277 278 278 278 279 280 281 280 274 272 272 273 272 271 270 268 268 268 268 269 270 268
297 296 296 296 296 296 296 296 288 287 285 287 287 289 293 296 296 297 293 288 282 280 280 278 280 274 273 266 267 272 284 282 279 283 279 282 286 281 282 278 281 278 278 284 278 279 278 278 279 275 273 278 275 272 274 277 278 280 280 280 280 280 280 277 276 278 278 276 274 275 277 276 274 275 276 274 273 273 270 267 266 269 268 269 269 268 263
296 296 296 296 295 295 289 291 286 286 284 285 285 294 297 297 296 293 291 287 285 280 278 277 279 273 275 269 265 268 283 279 283 283 282 282 280 284 282 280 275 279 282 280 275 280 276 280 275 271 278 273 272 275 277 279 279 279 279 279 281 280 280 279 279 279 275 273 273 275 274 273 274 275 276 275 275 272 270 268 264 264 268 270 269 267 262
295 295 295 293 288 286 284 285 289 287 285 289 292 296 295 293 288 288 287 286 286 286 279 277 274 273 274 271 270 272 280 273 282 279 281 279 277 282 280 278 275 280 277 276 277 276 279 283 277 273 274 272 275 280 280 281 280 279 279 280 281 281 281 281 280 279 274 270 269 272 272 271 271 273 273 274 273 268 264 266 267 267 267 268 269 266 265
295 294 287 283 282 281 281 284 283 287 296 295 293 287 283 284 280 283 283 281 284 284 279 280 276 274 272 273 270 280 279 275 282 276 276 280 277 275 279 276 277 279 269 274 276 281 277 275 275 273 274 279 280 281 281 281 281 281 281 281 281 281 281 280 277 275 274 274 272 271 264 264 268 270 270 271 271 267 268 270 269 268 268 267 267 265 261
291 285 285 285 281 278 277 276 290 296 292 288 282 278 278 280 277 275 276 280 281 277 281 279 276 278 274 272 272 282 278 276 276 276 273 280 275 271 276 270 277 277 271 272 273 281 270 273 273 273 272 276 277 279 282 281 281 281 281 281 281 281 281 279 277 277 276 277 278 278 275 273 272 271 270 270 271 269 268 265 264 263 263 261 259 258 258
285 282 282 282 279 278 285 286 296 292 288 281 281 278 274 279 275 271 277 273 274 277 280 274 281 279 279 276 273 273 281 276 272 272 274 274 280 270 273 272 274 273 267 271 271 279 271 269 272 271 271 275 276 280 280 280 279 280 281 281 281 281 280 278 275 275 277 278 278 276 272 273 274 274 273 271 270 270 265 260 259 257 256 256 255 256 254
284 282 282 279 278 278 280 284 284 280 280 278 277 277 273 269 272 272 272 271 273 272 277 275 279 278 280 279 278 274 278 277 271 273 274 271 278 274 270 269 278 268 268 268 272 269 265 264 268 270 272 277 278 279 279 278 279 279 280 280 280 277 273 271 272 271 272 274 270 265 259 257 259 261 262 264 267 267 265 260 255 253 253 255 254 253 253
285 284 281 282 279 277 279 278 274 275 273 273 271 269 274 271 266 261 268 268 271 271 268 275 272 275 275 279 278 280 273 272 270 275 274 269 276 269 266 268 268 267 265 270 271 265 267 263 265 266 273 276 278 277 274 275 277 278 278 278 272 269 268 269 269 262 262 269 268 260 253 252 250 250 251 255 257 256 255 254 253 252 252 251 252 252 252
290 286 283 275 275 274 275 274 276 274 270 270 269 265 268 265 268 269 267 270 266 265 266 269 267 276 274 277 271 273 275 279 276 275 274 271 278 274 269 268 269 265 269 270 269 268 266 266 266 271 274 276 277 276 276 277 277 274 269 264 265 264 266 269 269 263 255 257 256 255 252 250 249 248 249 251 252 250 249 250 251 251 251 251 251 251 251
283 281 277 275 275 276 277 267 275 270 268 268 268 265 266 263 267 265 262 265 264 265 269 273 272 275 271 276 276 275 275 278 281 271 271 276 270 269 270 266 268 272 271 266 268 265 268 267 270 273 275 276 275 272 274 274 273 265 261 257 256 257 258 257 256 255 253 252 251 251 251 250 249 249 248 248 250 250 249 248 249 251 251 250 251 250 249
277 276 276 273 269 275 272 266 273 268 267 267 270 265 267 266 269 267 269 266 267 268 270 270 273 272 271 269 268 272 278 271 277 274 270 273 268 271 267 266 269 269 268 267 267 264 263 265 271 273 274 275 275 274 268 266 266 270 264 255 257 256 258 259 257 255 253 252 251 251 250 250 250 249 248 248 247 249 251 250 249 250 251 250 250 249 250
277 274 274 269 267 272 269 268 267 263 266 269 267 266 268 270 267 267 268 265 266 266 271 273 272 272 270 270 273 273 273 272 271 272 273 272 268 267 270 269 269 266 266 265 265 265 268 271 274 274 275 275 277 269 260 260 258 259 261 262 257 255 255 255 253 253 252 251 251 251 250 250 250 250 249 247 247 247 248 248 249 250 251 250 249 248 250
277 277 274 273 269 270 270 266 266 266 265 263 262 267 270 271 267 268 267 267 270 271 272 271 273 273 274 269 269 268 268 271 270 272 271 267 267 269 273 268 265 266 264 263 265 267 269 273 274 275 274 271 263 256 257 256 255 257 259 257 255 254 253 253 252 252 252 252 251 251 251 250 250 249 249 249 247 247 248 248 249 250 249 248 248 249 248
272 276 274 267 266 270 267 269 263 261 261 262 264 262 263 264 268 269 269 267 270 274 273 273 269 270 269 268 269 269 264 266 269 270 272 269 270 264 265 264 263 265 265 264 267 271 271 273 273 263 255 255 257 257 255 255 255 255 254 255 254 252 252 252 251 251 251 251 251 250 250 249 249 249 250 249 249 249 247 246 246 247 247 246 245 245 244
274 273 271 270 270 269 269 265 265 269 265 260 259 264 266 270 268 268 268 266 270 270 271 271 267 268 263 268 266 269 266 270 266 268 270 267 265 263 264 260 262 261 264 266 269 271 271 262 252 250 253 253 255 255 256 254 254 253 253 253 252 252 251 251 250 250 250 250 249 249 249 249 248 249 249 250 249 249 249 247 245 245 245 246 245 245 245
268 267 266 264 264 263 260 258 263 267 262 261 263 263 261 266 268 267 266 269 268 273 273 275 274 271 267 267 264 267 265 268 267 269 265 265 265 266 263 258 261 262 263 266 267 261 253 252 256 254 254 255 255 255 254 253 253 252 251 251 251 251 250 250 249 249 249 249 249 249 249 249 249 249 249 250 250 249 248 245 244 245 244 244 245 245 244
272 271 269 267 267 265 265 264 266 260 259 263 263 265 264 267 268 268 267 268 271 269 268 268 270 266 266 265 265 263 265 270 266 266 266 265 266 263 262 263 266 264 262 257 253 253 254 253 253 255 254 254 255 254 253 252 252 251 251 251 250 250 249 249 248 248 248 248 249 249 249 248 249 247 248 248 249 248 249 249 248 243 243 242 242 243 243
269 267 267 265 263 263 266 261 261 263 264 263 266 259 262 266 261 261 263 266 269 269 266 264 265 265 265 264 266 266 267 264 264 266 263 266 266 261 259 264 267 262 259 258 256 253 252 253 253 253 254 254 253 252 251 250 250 249 249 249 249 249 249 249 249 249 248 248 247 246 246 245 246 247 248 248 248 249 248 245 246 245 243 242 242 242 242
Wind_Speed
19 19 18 17 15 14 15 16 12 11 10 7 7 4 4 2 0 3 2 8 12 9 7 4 5 6 2 4 1 2 1 4 3 5 2 2 3 1 3 5 4 4 4 5 4 6 3 5 5 3 4 4 2 3 4 4 5 5 0 2 2 7 2 0 4 3 3 3 2 3 3 3 2 2 2 3 5 6 8 5 4 3 2 2 1 6 3
17 17 17 16 15 13 13 14 14 8 3 2 6 6 5 4 3 2 0 4 7 9 9 9 10 3 0 1 2 1 2 5 3 5 6 6 4 5 4 0 6 3 4 3 5 7 1 4 6 5 2 3 1 3 5 2 2 2 5 5 4 2 3 5 1 3 4 4 2 3 3 2 1 2 1 2 3 4 2 4 0 2 5 5 2 13 6
15 16 15 14 13 12 12 12 10 8 3 2 2 6 4 5 2 1 0 1 6 9 4 5 6 9 6 5 5 4 1 5 8 8 6 2 3 4 4 5 4 3 3 5 4 6 11 2 3 4 3 4 1 5 2 4 4 1 1 4 3 3 3 5 5 11 11 10 9 5 3 6 1 1 1 2 5 5 3 3 3 4 2 7 6 12 2
15 15 15 13 12 11 10 9 8 7 4 3 3 3 5 3 3 2 1 2 5 4 1 0 4 8 9 7 5 4 4 1 6 8 4 6 2 3 1 1 5 3 4 4 6 7 4 9 2 4 4 2 1 2 4 2 3 1 5 4 4 2 0 5 9 10 12 9 2 2 3 2 3 2 4 5 1 2 2 3 2 6 3 5 8 7 0
13 15 14 13 13 12 10 8 7 6 5 3 3 4 3 2 4 5 5 2 8 7 4 3 3 5 5 6 4 11 12 4 1 9 4 6 7 3 5 3 5 4 5 6 6 7 6 4 3 5 4 1 2 3 4 4 3 7 5 0 5 2 2 7 7 8 7 1 3 4 4 5 3 2 6 6 6 5 6 7 6 3 3 12 7 3 3
13 12 13 13 13 12 12 10 7 6 4 3 2 3 1 3 3 4 3 3 8 12 10 10 8 2 8 6 1 3 9 8 5 2 4 1 5 6 1 3 10 9 12 7 5 5 8 7 8 3 1 3 0 1 2 2 2 2 1 1 3 4 6 3 3 7 3 2 4 3 2 3 4 6 7 11 8 7 7 4 9 7 8 13 8 4 6
13 13 13 13 12 12 12 11 9 7 5 4 3 5 1 2 1 2 1 2 2 11 6 10 9 9 7 2 6 6 8 10 9 4 2 3 2 10 6 10 14 12 9 10 8 8 5 8 9 6 5 7 5 2 2 1 2 2 1 0 1 3 4 4 3 4 2 2 4 3 4 2 3 7 11 10 8 6 5 11 12 11 10 11 11 9 14
15 15 15 14 14 12 12 11 9 7 8 4 3 1 4 5 3 3 1 1 2 0 3 5 11 14 13 9 11 11 9 10 6 3 6 3 7 8 13 13 10 11 10 13 13 14 16 11 11 6 9 4 3 5 5 3 1 1 3 2 2 3 5 5 2 3 4 2 2 3 3 3 5 8 9 9 2 3 11 10 8 5 5 11 12 13 14
17 16 16 16 15 14 13 12 12 10 6 3 2 1 1 1 2 0 5 6 4 2 3 7 10 10 9 12 12 8 10 14 13 6 4 14 7 7 18 16 8 7 11 13 17 13 10 7 13 12 15 13 8 8 5 7 5 4 2 0 2 2 4 3 2 3 3 1 4 4 2 1 3 9 14 7 4 9 11 9 6 7 12 12 5 5 11
18 17 17 17 17 17 16 14 13 12 7 4 2 2 1 3 1 2 1 4 4 7 3 5 6 12 12 12 13 10 15 14 7 5 2 2 3 7 12 13 12 7 11 16 20 12 9 10 5 6 3 5 5 2 4 10 11 6 7 0 4 3 5 3 2 2 4 2 1 1 2 5 10 17 16 10 13 13 8 5 5 12 7 4 8 11 8
20 20 20 19 18 19 17 15 16 14 7 4 3 2 1 3 3 2 2 3 3 5 7 7 12 8 9 11 10 11 7 4 8 12 2 2 0 1 4 10 11 8 14 8 4 11 10 8 4 6 11 9 8 5 6 6 4 6 9 3 1 4 6 4 2 5 2 1 1 2 2 6 15 1 3 8 9 10 10 12 14 10 7 7 6 7 3
19 19 20 18 19 17 15 16 17 16 8 5 4 2 2 2 4 3 3 8 8 4 8 10 13 7 10 8 11 9 11 10 7 4 7 1 1 2 2 3 6 7 2 9 12 10 9 5 8 10 11 10 9 7 7 2 1 1 4 8 5 6 4 5 2 5 3 1 2 1 8 16 3 2 2 3 7 6 9 10 8 8 6 6 6 6 6
21 20 20 20 18 17 16 16 18 17 11 5 4 4 2 2 3 3 3 3 7 6 7 6 2 3 2 5 5 8 7 2 1 3 2 4 0 2 1 2 6 3 10 13 13 9 8 6 8 6 6 5 5 5 4 2 4 4 1 3 8 7 6 3 1 4 3 2 5 4 13 6 6 8 2 0 1 1 0 6 8 10 10 9 7 10 9
21 20 19 20 18 17 18 17 18 18 15 8 5 5 3 3 3 2 3 3 5 2 2 5 3 3 4 3 5 2 5 4 3 3 3 3 4 3 1 1 2 8 6 3 6 5 5 4 3 2 3 5 4 2 3 2 6 8 7 7 4 8 3 4 4 2 7 4 8 13 4 11 13 11 3 6 6 4 6 6 7 8 5 6 5 8 9
18 19 20 20 21 19 18 18 17 19 18 13 5 2 3 3 4 3 1 1 2 2 4 8 5 4 4 3 5 4 2 4 6 2 2 1 4 1 1 2 2 4 0 4 2 3 4 3 2 3 2 2 2 6 2 1 2 3 7 5 3 8 11 4 5 4 6 5 5 4 2 8 14 6 0 1 2 4 3 3 8 6 3 4 9 6 4
16 16 16 18 19 18 18 18 18 18 18 15 6 4 3 4 4 4 2 3 3 5 6 7 1 4 5 4 6 11 7 5 5 3 2 3 1 1 1 1 3 2 3 4 2 5 2 5 4 5 5 5 2 3 3 1 1 2 3 2 3 3 2 4 10 3 4 2 7 8 7 10 6 3 3 1 3 9 5 2 7 6 7 9 6 5 3
20 19 18 18 17 18 19 19 19 18 19 18 7 6 5 5 4 5 4 1 2 6 0 2 3 2 4 2 1 1 3 7 6 6 2 2 2 1 1 2 2 3 1 4 1 4 3 4 2 2 1 2 4 5 1 1 2 1 3 4 4 6 4 4 3 5 8 7 6 10 5 7 3 4 3 5 3 4 4 2 8 4 3 5 7 7 7
15 19 21 20 20 19 19 18 19 20 19 20 10 7 5 4 5 5 3 3 3 3 4 2 2 1 5 5 4 2 5 5 5 3 4 1 3 1 2 1 2 3 1 5 1 5 2 4 6 5 6 4 2 3 6 5 4 5 5 8 5 7 2 7 14 12 12 12 7 3 5 4 3 5 3 3 2 2 3 11 9 3 6 8 7 8 8
14 15 16 16 17 18 19 20 19 18 19 20 8 6 3 4 5 5 5 2 3 6 4 2 1 2 1 1 2 2 2 5 8 8 4 3 2 3 5 1 1 3 4 5 3 3 6 4 2 3 5 3 2 7 2 3 5 1 7 5 3 3 2 3 2 10 11 9 9 11 6 6 5 3 8 6 4 2 12 7 4 10 7 6 9 8 7
17 16 16 16 17 18 19 19 19 20 20 22 13 7 5 7 8 10 8 5 2 3 5 2 0 2 1 1 2 2 1 3 1 8 6 6 3 7 4 1 4 5 3 2 3 2 4 6 6 1 1 5 4 5 2 5 1 8 4 5 7 10 8 8 10 4 0 2 8 3 8 6 12 9 3 2 5 8 5 2 1 3 6 8 7 8 7
18 19 19 18 18 19 20 19 19 20 20 21 15 6 5 2 6 4 5 7 4 1 6 4 2 7 2 2 3 2 5 7 6 6 4 4 9 8 8 7 8 4 6 6 9 6 4 3 2 3 3 6 5 3 6 3 2 6 6 5 3 4 4 3 5 6 6 8 9 10 9 2 9 13 9 6 11 7 5 4 4 3 5 5 5 8 8
20 19 20 20 19 20 20 20 20 21 22 23 17 6 6 5 6 6 3 5 3 5 4 0 1 2 4 3 4 5 4 3 6 4 9 5 4 4 3 4 6 4 3 4 4 1 1 2 2 2 4 2 1 6 3 5 4 2 3 4 2 8 10 7 7 4 9 9 7 3 4 6 10 10 9 9 13 9 7 5 5 5 5 4 5 7 7
21 21 21 20 19 19 18 18 21 21 20 21 17 8 8 6 6 6 7 4 1 1 1 2 1 2 1 2 4 5 4 2 7 3 6 9 4 0 4 3 2 1 1 2 7 6 5 8 6 5 2 2 10 3 1 3 3 2 6 6 5 4 3 1 3 4 1 3 5 1 1 1 7 9 7 8 7 3 6 6 5 5 7 7 8 8 7
20 20 19 19 19 20 20 21 20 19 21 21 13 9 7 6 7 7 4 3 4 3 4 3 0 5 7 6 8 2 3 2 3 5 2 7 8 2 1 2 2 1 0 4 5 6 5 3 4 3 3 5 7 4 9 7 7 4 1 3 3 4 2 1 2 4 4 5 2 6 6 3 5 11 11 5 4 5 6 5 6 7 7 6 6 8 9
21 20 19 19 19 19 20 20 19 20 20 20 15 9 5 3 5 9 9 6 5 5 4 2 8 8 5 4 1 1 5 5 2 5 3 2 6 9 9 6 6 8 7 5 2 7 2 4 1 1 5 7 8 5 3 6 5 5 4 7 1 5 3 3 6 4 5 7 5 7 6 6 7 8 9 9 11 9 6 7 7 7 7 7 10 8 8
20 18 19 20 19 19 19 18 19 20 20 19 15 8 8 8 8 8 6 2 2 2 5 8 5 2 4 3 4 5 4 6 5 4 4 5 4 6 6 3 1 3 4 3 4 6 4 2 2 1 5 6 3 4 5 7 4 3 8 11 7 4 3 4 4 6 3 5 8 7 2 4 9 8 5 7 8 8 7 7 7 8 8 10 8 6 9
19 19 19 19 19 19 19 19 19 19 20 20 14 10 8 7 9 12 12 10 6 3 6 9 2 0 0 8 2 1 2 6 5 5 4 3 4 3 5 5 6 3 5 2 2 4 1 2 3 6 4 5 4 4 4 0 4 3 4 6 2 3 8 3 3 4 3 9 11 4 1 7 10 12 14 13 12 9 10 9 6 7 9 10 11 11 9
21 21 18 17 15 16 17 18 17 18 16 15 9 7 6 7 10 14 11 9 13 5 4 3 3 3 1 1 4 5 8 7 9 8 7 5 5 6 6 8 6 4 3 6 1 1 2 6 8 3 1 1 2 2 1 0 4 1 4 8 6 8 11 7 8 8 10 11 10 9 10 9 11 9 6 7 6 6 9 11 12 12 12 11 11 12 11
19 17 19 20 19 18 17 16 16 17 17 11 4 4 1 4 6 7 8 6 3 1 4 2 2 1 4 5 2 5 5 7 9 9 8 6 7 7 8 9 9 7 4 3 3 3 4 5 4 5 4 5 6 4 4 3 4 7 10 12 12 13 12 12 11 9 10 10 11 5 8 11 9 9 10 9 7 7 9 11 12 12 11 10 10 11 12
17 18 16 15 16 17 17 18 19 18 14 8 5 3 1 3 6 8 10 9 7 2 3 4 3 4 1 2 1 4 5 6 7 8 10 8 8 9 10 9 6 6 4 5 6 6 5 2 2 2 2 3 5 3 4 3 5 8 11 16 18 17 14 10 9 12 14 13 8 6 8 8 10 10 8 8 8 6 7 9 11 10 10 9 10 11 10
19 17 17 18 17 16 15 16 16 16 13 7 5 3 4 5 6 10 14 11 10 7 2 1 4 1 2 3 2 9 10 8 10 11 12 13 12 12 8 5 2 6 5 3 4 8 4 3 5 3 3 7 6 4 5 5 7 5 15 19 20 20 16 12 12 12 12 12 12 3 4 8 7 2 6 10 11 6 5 5 7 9 10 7 9 11 10
15 15 15 14 14 13 13 13 14 12 7 9 10 6 2 1 0 6 18 12 10 4 4 3 2 2 2 1 2 3 7 10 8 5 4 5 8 7 4 9 7 7 7 7 4 2 6 8 5 5 8 9 7 2 5 8 11 14 19 21 19 16 11 9 10 11 10 12 9 5 6 11 10 11 14 15 12 6 8 10 10 9 10 8 6 5 5
15 14 13 12 13 14 13 12 11 8 5 5 5 9 8 5 6 5 12 10 8 3 3 3 4 2 2 4 1 3 3 4 3 7 7 6 6 5 4 5 2 2 6 3 4 6 3 6 5 8 7 7 4 4 8 12 15 22 25 21 15 9 9 8 8 9 11 10 9 12 14 16 16 14 12 13 10 6 7 9 11 5 2 3 6 6 5
12 12 13 13 12 11 11 11 10 12 7 4 3 3 3 9 9 11 8 3 2 1 2 4 4 5 4 3 3 3 6 6 5 7 4 3 2 5 5 5 6 5 5 11 6 2 2 4 9 8 5 3 5 4 5 13 23 26 22 17 13 11 10 7 6 11 13 11 9 13 16 16 12 1 1 4 6 6 5 4 2 3 7 7 9 9 6
16 13 11 11 11 10 9 8 4 4 2 2 1 0 6 12 12 14 12 5 3 2 1 2 1 3 2 2 2 5 4 5 5 7 7 3 6 6 3 3 4 6 4 4 1 6 5 6 2 3 5 4 5 6 9 19 24 22 18 14 11 13 13 10 12 16 15 5 5 8 11 8 6 9 11 7 8 8 6 6 5 6 6 9 10 7 5
15 15 14 10 6 4 2 5 3 3 2 2 2 8 16 13 13 8 7 2 2 2 3 3 4 5 5 6 5 2 3 2 2 4 3 2 0 3 3 4 5 6 2 4 6 6 8 4 5 5 5 6 10 11 17 19 19 16 12 12 15 16 17 20 19 15 4 4 9 9 10 7 10 13 11 10 10 8 7 6 5 5 8 9 9 7 5
11 11 11 12 7 3 2 2 2 3 3 5 6 8 10 12 6 4 1 1 1 0 2 2 2 5 6 4 0 3 3 4 3 3 4 4 4 1 4 4 7 2 3 4 5 8 7 7 6 7 8 12 15 18 20 19 16 13 10 13 16 17 17 17 15 10 5 6 8 8 8 8 9 10 10 11 10 5 3 6 10 10 11 14 11 7 10
16 15 8 3 4 3 3 4 3 5 12 21 17 8 3 3 3 2 2 3 2 4 3 2 6 2 2 3 2 4 5 2 3 5 1 2 3 2 1 2 4 4 6 5 7 4 4 3 6 9 11 11 16 18 19 16 14 10 11 14 16 17 17 14 9 6 8 11 9 9 5 4 8 9 9 11 10 9 12 12 9 8 8 8 7 5 5
12 4 4 2 2 2 3 3 6 18 11 3 4 4 1 1 3 0 3 2 2 5 3 6 9 6 5 3 1 0 4 5 4 4 5 4 4 4 2 4 3 3 4 2 5 9 3 4 4 5 7 11 16 22 21 15 12 11 14 16 17 18 15 11 9 14 15 16 17 14 10 12 13 14 11 11 10 8 7 6 6 6 6 4 3 4 4
6 5 4 4 4 3 1 2 17 13 3 3 1 4 3 3 4 3 2 2 2 1 3 8 6 6 9 11 7 5 2 5 7 5 5 2 0 5 2 2 3 4 5 7 4 7 7 7 5 5 11 12 17 20 16 12 12 14 15 17 18 18 15 9 8 8 10 11 11 10 7 9 10 11 10 10 10 10 7 5 3 2 4 4 4 5 4
4 4 3 3 3 2 0 3 3 2 2 3 2 0 2 0 2 0 2 4 4 3 2 3 4 6 7 6 6 7 1 3 0 2 3 5 2 5 1 3 2 3 3 5 2 3 1 0 3 10 14 15 15 16 11 10 13 16 16 16 16 12 6 5 6 7 8 9 8 7 4 3 4 5 3 5 7 8 5 5 5 4 5 5 5 5 5
5 5 4 5 3 3 2 4 3 2 1 0 2 3 3 1 1 1 2 5 6 2 3 4 4 7 8 11 9 6 3 1 2 2 2 3 3 4 2 1 1 3 4 2 3 1 2 2 4 5 9 12 14 10 6 9 12 14 15 13 6 4 6 7 8 4 2 7 5 3 2 3 3 2 1 2 3 4 6 7 6 5 5 5 6 6 5
15 10 7 4 2 1 1 1 2 2 3 3 2 1 1 2 3 5 2 1 1 2 4 2 1 1 1 3 1 1 4 2 3 2 2 3 1 1 2 1 2 3 4 1 2 2 4 5 4 8 7 12 13 10 11 14 13 9 5 1 2 3 5 7 7 6 2 2 4 5 5 6 5 3 2 5 9 10 7 5 6 7 6 6 6 6 5
7 4 4 0 2 2 2 4 1 3 1 1 4 5 3 2 2 2 1 4 2 2 5 8 6 9 5 2 6 2 1 1 3 1 1 1 3 3 3 4 4 2 4 1 2 5 6 4 7 10 12 11 8 8 11 12 9 5 2 0 2 2 3 5 7 8 5 6 7 6 6 7 7 5 6 4 5 12 10 8 4 7 6 6 7 5 4
4 2 2 2 2 3 4 3 1 4 6 5 4 3 4 9 8 7 10 3 4 6 3 4 6 6 5 2 3 2 3 3 0 4 3 4 1 2 3 4 2 2 3 4 3 2 1 6 8 10 13 14 13 12 6 4 5 8 6 3 1 3 4 6 6 6 6 6 6 6 7 5 7 7 7 7 5 5 10 9 5 6 6 6 6 5 3
3 4 4 4 3 2 3 2 2 1 2 2 5 7 6 7 5 6 4 2 4 2 7 7 6 5 5 1 6 5 3 3 3 3 2 1 4 5 3 0 2 2 2 3 4 8 11 12 12 13 13 14 15 6 3 3 2 3 8 8 7 4 3 5 5 6 7 8 6 6 7 5 6 8 8 5 5 5 5 5 4 5 6 6 4 5 3
2 1 1 1 1 2 2 3 4 5 3 2 5 7 7 7 5 3 3 3 5 5 4 1 4 4 7 3 2 2 0 1 3 2 4 2 4 0 2 3 3 3 5 6 7 7 9 11 11 12 10 7 3 2 3 3 3 4 4 4 7 6 5 6 6 8 7 6 7 7 6 7 6 7 7 9 5 5 4 4 4 5 6 6 4 5 3
4 1 2 3 4 3 7 5 1 2 1 0 0 1 1 1 5 1 1 2 3 6 7 6 2 0 1 2 2 4 2 1 2 3 3 2 2 2 1 0 3 2 2 4 10 9 9 9 8 3 3 4 1 5 4 4 3 4 4 6 7 8 7 8 7 7 7 8 8 8 7 7 7 7 7 7 6 5 4 4 4 4 5 5 4 3 3
1 2 4 3 1 2 1 1 6 5 3 0 1 1 2 6 3 2 2 1 5 4 3 5 3 5 1 0 1 1 2 3 3 3 3 0 4 4 4 5 3 4 5 7 8 9 7 3 4 3 3 2 2 2 3 2 3 4 4 6 6 7 7 8 8 7 6 7 7 8 8 7 7 7 7 6 7 5 4 4 4 3 3 3 2 2 1
2 1 3 2 3 2 0 1 3 7 1 1 0 1 0 1 1 1 1 3 3 6 2 4 1 3 1 3 0 1 2 1 2 0 3 3 3 2 2 2 3 5 4 5 4 3 3 3 3 3 3 2 3 3 4 3 4 5 5 6 6 7 7 9 9 7 6 6 7 7 7 7 7 6 7 7 6 6 5 2 2 2 1 1 2 1 1
0 1 2 1 3 5 6 5 9 5 3 6 5 6 5 6 5 4 0 4 5 5 3 3 2 3 1 1 1 1 3 2 2 3 4 3 1 3 4 4 5 4 3 1 2 2 2 4 3 2 3 2 2 3 4 4 5 6 6 7 7 8 8 7 8 8 7 6 6 7 7 5 5 5 5 5 7 7 5 3 2 2 2 1 2 2 2
2 1 1 1 2 1 1 1 1 3 4 4 7 4 2 4 2 2 1 3 6 6 4 2 4 2 2 4 4 1 1 3 2 1 1 4 2 3 3 7 7 4 3 2 2 0 1 2 3 3 2 2 1 3 5 5 6 6 6 6 7 8 7 7 7 7 7 6 5 6 5 5 5 5 5 5 5 5 6 4 1 1 1 1 1 3 3
Wind_Direction
120 121 121 120 119 120 129 135 144 143 154 131 163 119 110 95 79 337 148 175 170 186 213 173 185 203 244 76 45 119 120 155 189 158 167 173 147 124 187 192 155 255 166 196 186 161 227 173 205 202 208 242 196 215 184 183 80 89 349 53 272 67 104 349 295 319 320 322 324 39 36 102 34 341 66 119 185 187 192 210 196 166 281 264 277 243 251
120 120 122 119 120 126 133 138 140 137 19 212 142 110 137 122 126 84 341 192 194 205 203 200 196 169 330 153 168 135 171 157 171 185 189 172 168 173 175 230 208 201 172 141 191 176 219 233 189 252 184 231 349 329 218 194 174 125 223 134 242 96 277 137 235 300 323 332 355 7 338 52 163 181 248 133 88 77 107 92 34 122 222 196 182 254 235
127 124 122 119 120 125 127 131 130 108 97 14 165 125 142 100 59 64 295 241 223 210 213 213 195 207 187 167 185 174 155 218 194 175 191 149 165 123 220 189 149 195 160 188 181 189 195 261 249 178 190 214 1 342 221 225 189 150 280 150 120 153 190 126 193 224 239 242 220 235 223 216 223 194 213 241 140 146 101 225 180 200 229 164 219 252 252
133 131 127 123 124 125 125 125 126 112 92 338 67 122 86 146 150 166 340 219 240 268 42 327 211 206 204 215 209 174 211 195 194 172 218 174 193 184 128 110 157 159 145 169 200 221 227 195 216 162 212 225 318 280 351 112 165 211 143 137 97 173 214 192 207 214 233 236 184 249 95 72 188 251 170 219 172 168 125 109 112 193 225 214 229 220 252
141 138 135 132 134 133 129 129 119 111 100 60 108 37 105 98 139 156 188 129 241 234 178 192 174 217 174 210 178 207 211 167 269 189 207 200 188 189 184 168 156 220 170 192 220 210 218 224 177 199 161 247 212 20 111 73 79 133 104 290 76 86 193 234 220 230 237 138 169 192 164 178 225 200 254 217 176 165 148 172 208 151 95 258 245 210 202
151 147 143 142 139 138 134 131 127 119 120 91 47 101 131 142 235 148 220 164 194 202 225 206 189 216 181 220 186 206 206 201 207 154 217 108 194 179 316 191 211 180 186 176 199 196 216 182 218 157 203 111 69 83 359 100 359 56 82 40 130 148 209 262 149 254 239 159 150 162 133 190 197 224 238 256 240 146 170 216 217 171 200 246 250 196 193
158 156 152 150 148 148 145 139 136 128 120 92 80 128 276 88 2 213 3 193 248 205 196 185 209 219 198 251 229 233 208 209 206 174 134 146 202 197 218 209 215 207 187 180 212 187 198 226 215 180 188 171 143 166 352 266 58 85 79 60 139 90 270 206 162 219 268 201 154 205 173 226 234 229 236 235 235 243 191 226 233 210 226 241 254 262 256
169 166 162 158 155 154 152 150 143 133 115 94 59 358 144 198 149 229 346 12 353 201 188 185 196 219 205 217 213 221 217 221 207 180 162 196 221 188 215 219 210 202 201 198 212 207 211 193 201 191 158 217 175 197 181 151 29 95 171 153 277 117 273 111 203 203 271 283 159 199 172 167 247 259 248 237 195 206 227 240 252 249 256 249 249 259 268
178 176 172 168 163 161 160 156 153 143 124 65 144 237 112 71 60 31 130 198 214 123 166 181 197 213 210 221 224 219 215 230 213 217 205 209 195 181 209 216 207 196 205 212 222 218 209 202 203 181 172 187 200 153 252 140 154 148 141 171 281 89 244 55 80 164 298 309 161 246 53 25 252 271 263 243 206 244 240 234 219 217 234 243 250 250 254
183 182 180 175 172 171 166 163 159 157 117 97 132 159 202 62 331 77 108 197 191 183 184 199 174 218 212 212 213 214 213 226 187 230 240 189 229 193 205 206 194 205 205 217 222 210 188 179 163 144 62 85 74 84 156 158 158 172 166 153 157 172 142 137 123 148 256 278 172 205 35 13 316 259 250 238 237 239 258 265 224 223 218 220 226 236 239
187 184 187 186 183 185 187 179 170 164 136 147 128 214 121 140 149 77 28 164 296 179 181 206 205 216 215 204 224 226 232 186 177 206 235 117 232 31 205 195 198 209 212 211 78 99 90 92 111 82 82 76 79 72 89 78 123 153 153 115 142 116 142 170 152 169 238 298 191 51 80 260 242 303 147 190 223 228 228 238 240 236 180 211 204 233 245
203 200 200 197 193 195 192 185 181 171 154 165 116 162 200 122 93 89 128 200 230 135 196 208 209 214 219 201 214 215 215 206 210 220 224 150 240 3 154 216 186 216 208 139 123 110 112 74 59 54 55 56 55 44 52 76 319 64 154 146 171 160 150 163 158 125 217 204 69 242 236 246 282 331 338 179 211 217 215 239 242 241 236 240 266 265 244
206 202 202 201 200 200 195 194 192 177 161 134 121 160 233 136 120 147 156 196 230 173 191 235 296 256 255 179 199 216 212 184 86 106 85 132 200 28 349 171 192 207 148 142 139 125 92 88 61 80 48 35 25 43 14 177 230 257 267 136 143 177 155 161 137 125 45 114 169 212 241 263 298 277 200 64 121 190 83 300 264 247 230 212 215 243 243
201 205 208 208 207 202 201 200 200 184 163 149 138 180 169 125 123 133 151 176 234 191 189 299 293 247 211 190 170 81 79 86 52 66 117 350 143 129 305 100 248 132 159 113 57 82 66 34 36 53 323 19 3 358 276 210 228 211 217 228 184 163 92 151 211 191 192 204 193 235 352 313 292 280 204 164 213 177 165 235 268 241 203 169 188 232 247
211 209 208 210 209 204 202 202 203 200 184 168 163 149 145 146 133 134 268 103 211 292 183 212 216 202 186 190 152 122 111 169 133 38 54 356 65 275 214 283 319 144 202 107 71 47 142 112 70 134 337 102 197 235 355 244 302 246 228 227 181 167 178 211 169 263 140 158 255 323 297 253 257 245 295 313 199 127 157 124 283 277 240 182 160 213 208
214 211 207 209 211 212 205 204 206 205 197 182 165 180 190 181 131 102 126 143 149 246 245 218 160 152 184 194 188 166 170 163 147 108 49 24 322 39 295 328 323 20 26 77 91 98 124 143 192 131 199 195 239 85 277 62 338 355 45 182 125 327 154 167 193 210 102 149 214 222 225 241 232 258 253 177 158 123 134 63 285 265 178 206 168 188 198
217 215 215 213 214 213 211 208 205 203 202 189 174 180 202 184 148 140 117 65 221 221 256 111 175 125 97 85 71 1 175 160 165 145 173 185 169 323 315 347 339 70 40 86 47 84 79 64 73 114 307 158 121 211 112 58 157 327 36 70 145 174 175 129 179 219 218 208 220 237 221 255 269 236 203 179 119 85 62 316 266 267 200 160 162 191 198
231 221 217 216 215 214 212 209 206 204 205 190 172 178 195 189 161 120 85 139 176 261 262 187 112 193 187 191 167 214 90 88 64 59 94 177 92 183 203 38 92 310 182 113 162 84 112 124 175 188 210 249 157 95 209 164 163 198 163 157 146 182 214 200 207 218 228 222 243 311 284 269 198 161 208 158 172 70 111 228 238 226 177 193 171 191 200
223 225 225 216 212 209 209 209 202 203 201 196 171 167 227 174 166 126 112 113 176 229 266 286 214 167 232 100 129 166 182 166 153 111 145 84 248 201 141 205 175 181 350 141 59 131 167 240 26 118 165 262 134 199 202 123 214 64 123 100 54 344 95 316 279 217 221 220 227 232 264 236 179 276 159 169 90 186 223 237 174 158 196 194 191 199 212
218 218 215 212 212 210 209 211 208 207 206 198 172 181 188 173 185 171 162 168 187 221 273 271 157 264 271 183 169 94 61 52 110 125 174 164 241 117 71 121 305 86 353 118 164 210 125 199 198 132 193 197 220 157 42 255 119 165 179 204 150 184 152 205 209 208 131 145 232 238 258 257 144 133 49 274 159 235 212 184 249 176 188 178 210 207 217
219 217 215 214 214 214 213 210 208 208 206 202 180 162 197 197 174 198 154 141 135 209 291 268 181 243 195 216 204 175 152 170 174 135 207 135 181 136 158 203 179 144 186 166 172 217 159 206 217 180 212 148 236 81 193 177 306 258 138 183 174 202 122 236 248 182 163 192 206 204 220 138 155 143 188 204 215 204 164 142 229 204 168 186 191 221 211
218 217 215 215 213 217 215 212 210 211 208 203 175 161 191 200 169 182 165 127 140 175 209 221 163 213 223 202 196 178 177 193 210 139 136 121 237 176 175 130 167 147 192 118 65 25 335 167 59 110 194 225 348 206 169 113 226 262 354 108 296 205 198 176 192 210 155 198 214 259 218 167 194 183 204 200 216 211 162 160 173 179 237 196 191 221 217
216 216 215 214 215 214 215 213 213 212 209 204 176 178 187 170 180 165 136 181 269 305 295 311 331 293 277 251 242 209 213 176 128 110 136 131 187 121 145 132 202 196 139 128 167 156 170 140 199 158 58 212 179 161 291 176 215 212 170 244 206 272 189 169 84 265 260 259 188 206 74 168 211 228 214 210 231 204 169 185 219 232 219 178 194 219 215
217 215 215 215 215 215 212 211 208 209 210 207 175 170 185 178 170 136 146 178 191 239 292 244 111 255 221 245 253 228 110 134 179 186 207 140 149 236 326 250 182 74 252 219 170 137 190 124 200 131 180 226 104 140 177 248 235 193 93 296 268 248 141 109 160 253 105 267 165 186 208 202 215 215 229 244 258 228 184 193 214 230 223 218 222 215 216
219 216 213 215 213 212 213 213 212 210 210 204 181 184 155 139 160 159 153 173 189 187 226 264 227 219 203 216 149 122 221 192 121 120 111 127 150 167 201 202 179 161 204 181 121 77 60 119 202 126 195 248 137 228 257 152 273 161 181 250 37 306 153 129 216 223 200 236 232 222 223 207 207 201 215 235 245 252 240 213 219 222 231 216 220 214 230
217 217 216 212 212 213 216 213 211 212 210 207 196 183 186 189 173 162 170 141 103 144 195 245 263 348 143 135 198 210 188 169 154 139 156 178 170 176 159 102 76 41 104 113 116 154 144 77 106 156 158 272 128 153 211 203 173 216 189 225 196 176 99 227 179 201 244 277 276 246 244 294 274 259 230 232 235 237 249 239 231 236 243 246 243 206 219
214 211 211 215 215 213 212 210 213 214 211 208 203 196 196 190 174 173 184 173 147 304 220 235 191 348 199 200 220 104 132 168 164 159 149 134 128 103 119 145 138 106 119 69 23 123 74 116 141 222 163 233 142 189 150 175 151 151 218 252 103 86 241 183 102 220 229 220 236 182 197 259 250 243 239 238 236 231 244 255 254 242 241 244 248 249 229
215 214 211 209 215 220 216 210 209 215 215 211 196 196 192 182 195 201 184 165 186 183 167 173 159 228 98 337 250 187 190 179 175 174 177 186 158 152 152 159 147 129 151 135 175 159 154 174 232 199 144 246 102 275 141 17 75 329 241 237 186 201 226 155 194 202 240 239 233 212 215 240 246 253 251 231 228 207 218 233 239 243 237 235 236 246 259
207 207 213 209 206 208 210 211 209 209 209 198 103 141 156 229 200 195 189 190 180 60 66 88 24 29 176 241 126 180 225 180 184 183 184 178 178 182 174 174 173 166 140 138 145 142 162 215 142 156 187 209 99 248 115 184 189 212 229 237 231 231 226 217 210 223 251 250 245 193 175 220 243 247 249 256 239 209 217 227 231 235 237 234 228 230 234
212 203 201 212 210 203 205 210 210 209 192 125 109 78 144 268 221 202 185 176 172 126 179 176 202 238 13 48 245 207 187 192 192 189 191 184 190 195 194 180 189 164 153 168 167 201 199 168 217 223 208 158 159 202 164 187 214 232 237 243 244 245 234 220 206 212 234 236 244 214 189 217 233 237 246 250 250 216 210 227 228 231 240 231 226 233 228
195 198 193 193 194 206 207 205 208 204 176 138 138 130 171 240 214 184 182 182 177 164 202 182 222 84 9 249 156 195 193 179 192 198 201 202 203 201 201 160 201 161 165 176 179 214 137 224 187 234 163 193 158 146 171 176 230 237 237 238 241 243 238 225 222 226 237 248 248 144 146 223 233 280 278 258 254 222 210 247 240 224 231 231 226 224 233
197 194 195 196 194 196 204 207 195 187 163 158 183 195 170 170 289 181 181 171 149 143 160 173 230 186 244 241 222 231 182 191 181 176 206 169 219 197 186 179 202 184 189 199 206 88 222 218 197 189 182 193 142 139 175 202 226 235 240 240 238 242 243 238 237 236 232 236 242 269 262 252 229 213 241 245 246 218 207 230 236 231 226 230 244 248 247
203 196 191 194 201 198 195 203 188 161 176 190 93 109 156 157 112 132 187 154 155 169 164 195 182 198 202 244 22 321 160 93 178 173 220 182 203 138 192 192 164 137 208 157 197 216 213 199 193 218 213 106 125 190 207 211 226 234 237 242 249 250 243 240 239 241 237 229 185 209 233 243 248 237 229 247 254 222 214 226 238 240 237 243 248 252 257
208 205 202 195 198 197 203 201 204 186 156 129 204 209 196 131 111 132 116 80 100 120 142 158 171 183 224 353 43 276 142 168 185 169 213 157 135 152 190 160 184 186 207 199 213 123 316 175 208 214 103 157 172 162 216 224 229 236 240 244 250 258 258 245 235 241 238 229 201 211 228 240 253 316 162 219 240 239 215 223 175 200 232 229 239 232 220
194 196 206 200 194 202 204 186 117 74 136 167 103 286 159 140 140 150 145 155 150 230 132 276 140 128 145 353 169 263 172 142 178 173 194 193 136 174 147 126 184 200 227 107 120 194 203 216 128 151 212 143 183 219 227 230 230 234 241 247 252 254 261 257 244 237 239 208 177 223 237 248 260 263 252 239 237 236 213 221 201 203 225 236 230 230 185
188 184 192 186 144 133 107 82 96 131 177 185 195 166 170 168 152 159 162 117 134 181 158 221 139 202 190 202 201 265 114 180 148 114 168 99 5 165 142 162 218 207 98 155 201 169 207 137 102 220 159 172 219 213 230 233 235 232 227 233 241 241 240 239 246 249 228 159 197 217 227 227 224 240 246 245 243 240 215 219 207 194 225 239 237 216 191
173 181 134 97 91 79 140 175 141 158 196 144 134 111 116 95 33 50 59 186 284 111 176 174 110 227 173 208 101 259 107 183 144 120 160 155 172 153 158 182 201 153 132 197 183 207 210 132 184 209 187 211 230 231 234 239 235 232 224 227 235 241 246 248 247 255 255 209 211 223 219 216 228 235 238 243 242 214 180 214 213 202 217 229 231 207 207
156 125 108 94 74 123 192 188 190 183 139 119 111 94 327 6 131 150 184 194 211 121 254 156 230 206 43 107 230 207 118 222 108 160 50 169 116 255 153 173 214 161 216 195 218 136 96 142 205 206 225 223 241 246 241 238 240 232 233 239 242 243 244 245 240 205 227 251 253 239 231 235 238 240 223 242 239 220 218 223 222 217 225 230 222 190 158
120 101 81 110 139 179 184 226 170 144 134 101 56 82 106 167 117 152 216 179 184 204 201 181 221 172 136 172 252 92 160 165 147 177 174 211 125 261 128 179 231 127 246 153 260 126 204 211 211 218 236 225 234 242 241 237 237 230 232 238 242 246 244 238 207 203 215 223 235 240 201 205 220 235 221 229 243 235 231 220 215 212 208 196 156 140 142
125 125 150 139 175 215 332 219 154 136 115 126 210 111 146 183 160 213 136 142 215 244 164 229 201 183 187 202 158 228 178 130 159 180 175 273 178 172 225 100 250 130 217 198 211 133 187 210 181 192 236 228 235 240 239 230 232 235 235 239 243 245 248 228 218 215 216 227 233 246 227 215 216 222 220 214 222 233 233 217 193 143 138 139 131 130 142
136 120 117 164 208 145 30 104 80 36 106 119 99 141 105 257 212 201 118 207 192 224 174 178 125 177 194 183 174 204 248 91 318 105 130 187 235 82 87 182 233 134 216 188 215 107 112 56 195 202 226 231 232 238 229 222 228 234 237 239 241 247 230 202 211 199 201 225 240 237 217 203 213 223 237 215 204 213 210 174 157 150 131 132 128 122 121
157 138 155 113 108 100 69 40 53 90 65 31 129 197 178 176 53 15 187 167 204 191 287 165 202 177 189 176 192 159 255 169 132 151 136 222 229 137 214 201 334 155 230 226 89 59 99 180 210 235 237 244 245 244 216 223 230 232 238 242 237 198 179 186 191 212 230 228 224 155 96 107 88 63 25 109 122 121 122 128 126 119 116 109 104 106 106
95 92 85 82 54 31 104 110 197 139 148 161 132 271 187 123 198 163 223 221 299 116 253 48 237 122 327 83 19 206 182 158 163 206 137 209 83 72 128 221 173 215 209 71 108 134 182 221 236 240 242 245 245 237 232 232 234 231 245 231 184 192 196 197 191 167 64 90 131 138 136 105 85 50 37 100 104 78 56 92 124 123 120 112 106 108 111
113 91 62 27 95 267 113 222 194 59 272 164 148 189 160 162 245 97 135 236 205 213 205 152 198 136 199 204 154 135 73 229 144 78 325 228 101 172 171 210 197 239 55 30 158 199 215 225 228 237 242 249 250 235 232 233 225 196 183 73 45 81 91 94 102 114 99 79 85 98 97 97 98 66 51 45 92 116 108 91 97 112 111 109 108 111 122
90 71 90 61 113 224 95 257 106 135 199 204 177 203 179 198 199 181 201 227 116 214 168 123 140 152 161 233 41 303 140 199 103 138 219 131 81 207 147 223 165 103 163 205 193 268 12 253 245 242 245 249 250 246 230 228 187 195 188 122 119 122 140 144 138 122 122 124 128 122 107 106 93 79 70 76 69 99 126 134 142 121 118 114 116 109 100
121 165 139 136 198 226 148 205 101 227 265 179 203 192 185 212 175 200 232 113 135 153 145 179 151 140 155 236 147 195 127 132 130 201 158 150 151 217 198 29 75 109 217 186 198 213 223 232 234 237 239 240 249 250 139 171 124 110 129 192 195 156 136 120 118 118 123 122 121 107 111 105 109 108 94 73 80 86 90 105 106 113 114 110 117 130 123
129 113 133 179 153 230 102 180 203 202 179 213 211 179 191 196 194 182 186 154 164 176 121 104 142 179 160 187 98 335 205 178 164 219 97 127 196 241 52 125 214 184 194 216 213 228 234 235 236 239 249 254 221 113 147 131 153 162 167 118 132 136 120 117 121 124 127 118 114 111 110 112 107 105 107 94 74 77 89 91 89 93 106 131 143 132 116
150 160 107 162 199 160 180 222 135 77 9 147 233 199 239 145 108 113 234 161 147 132 140 127 110 256 9 306 85 192 185 272 131 254 156 190 56 66 158 77 231 226 194 206 227 226 234 236 250 300 339 341 165 156 152 158 148 138 127 127 132 130 132 126 121 122 129 128 123 118 117 115 120 118 115 120 115 104 99 107 109 105 102 101 109 114 123
41 134 163 199 192 157 187 119 122 170 230 331 325 32 102 128 174 179 201 127 115 152 164 117 182 94 208 67 91 354 268 229 153 214 90 152 158 198 171 209 171 229 239 205 233 229 244 326 353 283 324 10 36 84 97 91 114 115 122 131 131 129 123 122 124 126 120 117 123 124 124 125 121 120 121 122 119 116 103 101 107 97 115 129 133 136 130
90 1 34 73 67 336 265 23 123 217 199 302 5 188 319 120 153 247 200 106 150 115 106 93 136 89 211 101 150 151 251 224 188 93 84 217 202 229 94 210 227 199 228 216 234 311 354 275 312 339 343 355 17 33 89 92 95 97 97 105 110 113 121 125 123 119 118 122 125 122 124 121 123 133 140 140 125 108 100 77 95 141 163 174 146 150 161
60 113 192 185 157 206 128 179 184 218 229 221 202 215 173 196 190 181 100 122 127 89 75 142 169 113 130 60 126 175 239 116 70 215 172 200 154 134 201 212 225 204 247 255 231 270 324 346 318 317 351 334 38 51 71 88 100 108 110 110 110 108 104 101 107 110 106 105 114 116 115 113 114 115 106 109 108 98 93 92 127 168 179 173 165 167 187
56 87 230 324 52 47 199 87 52 201 200 202 194 243 149 211 232 219 301 122 136 141 193 163 99 134 113 191 209 193 34 51 230 110 64 255 154 152 215 211 231 207 219 226 233 98 17 336 1 340 335 28 37 58 85 93 93 94 101 104 109 111 110 110 107 109 112 106 99 105 102 98 99 97 97 97 97 106 116 133 142 137 150 179 205 202 204